CAPE
655 849 1329 1765 1738 1651 1555 1501 1482 1604 1736 1658 1339 1342 1463 1345 1183 1405 1529 1665 1634 1631 1903 1782 1888 1816 1388 695 765 721 617 453 461 562 642 550 380 318 226 165 103 51 127
590 883 1248 1684 1762 1700 1583 1505 1507 1623 1906 1917 1338 1517 1710 1298 1287 1579 1652 1638 1693 1635 1701 1634 1880 1498 576 483 737 656 609 514 549 675 682 388 217 161 135 118 97 56 74
735 818 1050 1505 1718 1692 1651 1585 1641 1802 1962 1948 1384 1596 1555 1290 1663 1695 1682 1647 1636 1718 1512 1211 1089 653 385 550 685 794 719 581 407 257 95 38 71 90 88 58 61 29 66
663 764 812 1404 1628 1678 1606 1572 1669 1925 1996 1884 1722 1710 1432 1595 1812 1723 1537 1436 1454 1623 1557 1052 755 382 460 707 594 426 292 183 124 60 7 22 29 87 70 73 65 71 49
626 687 864 1261 1471 1648 1572 1568 1663 1763 1774 1693 1505 1708 1823 1823 1837 1626 1465 1213 1371 980 1388 783 432 381 647 524 349 199 144 63 16 2 8 16 35 72 62 34 26 23 19
739 769 1191 1180 1280 1551 1619 1574 1645 1550 1387 1418 1372 1369 1576 1634 1715 1529 1123 1235 1377 1287 1141 574 381 401 395 172 129 84 8 0 0 1 4 19 12 30 22 15 14 18 13
753 975 1041 1120 1172 1413 1640 1607 1514 1276 1136 1279 1234 1134 1010 1153 1254 1031 1108 1145 1083 991 822 426 295 246 217 40 28 3 0 0 0 0 1 2 5 11 8 6 4 2 4
765 908 907 1132 1218 1238 1504 1358 1192 1015 957 1002 985 1018 650 759 706 929 1081 881 753 565 347 153 157 179 78 0 0 0 0 0 0 0 0 7 17 8 3 3 3 5 15
766 806 919 1066 1181 1189 1348 1196 951 858 735 706 703 653 497 421 550 988 922 739 590 370 138 69 111 87 52 0 0 0 0 0 0 0 0 5 4 2 15 15 2 12 16
835 861 914 1025 1069 1025 1087 1026 795 716 522 525 514 503 438 422 461 548 547 640 464 185 71 38 52 60 15 0 0 0 0 0 0 0 0 5 1 16 13 18 20 20 10
839 849 881 883 879 853 906 804 706 617 472 371 297 197 219 212 267 327 276 315 196 90 49 27 24 5 9 0 0 0 0 0 0 0 0 19 0 14 13 19 18 13 9
940 821 795 771 730 709 749 686 596 436 318 191 135 86 81 84 115 107 116 204 139 74 43 19 5 3 0 0 0 0 0 0 0 0 0 6 5 12 19 18 17 5 10
1063 783 691 728 712 642 796 543 469 360 194 107 81 68 35 60 80 34 49 130 105 83 2 0 0 3 0 0 2 0 0 0 0 1 0 0 12 11 16 18 15 11 9
918 769 653 564 648 678 894 835 376 334 203 106 96 68 50 87 69 79 35 65 77 28 3 0 0 1 0 0 0 0 0 0 0 0 0 3 17 11 13 18 10 12 8
884 787 756 580 823 733 1049 492 635 325 203 109 70 80 68 46 89 61 31 5 28 39 0 0 3 2 0 0 0 0 0 0 0 0 0 16 21 15 12 14 12 11 10
586 968 884 766 886 1032 1102 450 481 209 378 143 57 79 65 46 33 52 38 50 34 16 2 5 13 11 0 4 6 15 4 0 0 0 0 0 9 18 17 12 10 11 12
226 808 1030 1165 1309 1116 667 660 461 285 216 139 71 106 77 35 24 60 2 26 14 39 28 37 51 33 11 24 41 41 1 0 0 0 0 0 0 10 13 19 11 11 12
0 388 1048 1311 1336 1264 784 1041 709 734 228 162 96 98 79 56 51 52 44 23 12 7 5 11 10 48 21 42 48 31 3 0 0 0 0 0 0 0 3 11 15 12 11
0 1 1229 1223 1646 1684 854 1186 1001 672 358 195 153 109 81 71 39 76 6 21 12 39 34 20 87 50 32 41 20 8 22 1 0 0 0 0 0 0 0 1 4 9 14
0 0 768 1263 1549 1588 1330 801 1143 468 437 249 194 147 127 56 45 15 26 108 36 30 4 57 64 35 23 17 24 40 9 9 1 0 0 0 0 0 0 0 0 0 6
0 22 420 1244 1140 997 1139 1401 1192 673 815 327 254 223 172 97 54 47 40 89 71 29 21 21 40 43 36 43 42 33 15 4 5 0 0 0 0 0 0 0 0 0 0
0 0 178 827 1005 937 947 1074 999 691 445 440 193 257 265 164 80 74 32 56 75 48 68 19 28 31 37 45 37 18 7 2 4 1 0 0 0 0 0 0 0 0 0
0 0 104 451 1059 946 986 843 776 735 767 640 259 328 256 191 108 29 31 3 66 77 83 79 25 4 8 16 34 6 8 1 0 0 0 0 0 0 0 0 0 0 0
0 0 84 214 526 787 714 679 710 718 794 486 263 310 277 225 89 75 6 4 76 145 152 128 54 0 2 1 8 28 2 0 0 0 0 0 0 0 0 0 0 0 0
0 0 4 279 496 735 850 501 555 573 616 308 432 265 202 143 206 65 56 24 54 44 109 118 112 49 0 10 2 10 8 0 0 0 0 0 0 0 0 0 0 0 0
0 0 0 129 179 518 762 460 540 722 620 436 391 331 223 228 152 88 65 90 51 42 43 111 69 47 41 33 32 15 5 0 0 0 0 0 0 0 0 0 0 0 0
CIN
-231 -255 -111 -24 -21 -16 -23 -48 -49 -30 -24 -19 -34 -19 -2 -1 -3 0 0 0 0 0 0 0 0 0 0 0 0 0 0 0 0 0 0 0 -1 -7 -40 -75 -112 0 -100
-264 -258 -152 -52 -20 -1 -5 -34 -36 -19 -11 -1 -29 -9 0 -4 0 0 0 -1 0 0 0 0 0 0 -5 -2 0 0 0 -1 -2 -1 -1 -1 -24 -67 -93 -102 -125 -1 0
-234 -310 -213 -78 -23 -2 0 -10 -20 -5 -3 -2 -18 -2 -2 -1 0 0 0 0 0 0 0 0 0 -6 -6 -1 0 0 0 -1 -3 -19 -81 -173 -162 -140 -142 -16 0 0 0
-438 -348 -259 -102 -37 -1 0 -2 -9 -2 0 -5 -1 0 0 0 0 0 -2 -1 0 0 0 0 -1 -6 -2 -1 0 0 -5 -37 -52 -110 -2 -71 -2 -146 -53 0 0 0 0
-438 -358 -243 -136 -68 -6 -1 0 -1 -2 -2 -3 -8 0 0 0 0 0 -3 -2 -2 0 0 0 -4 -3 0 0 0 -3 -30 -81 -51 -12 -11 -14 -9 -46 0 0 -1 0 -3
-384 -301 -158 -128 -78 -8 0 0 0 -6 -11 -7 -8 -4 -1 0 0 0 -5 -3 -1 0 0 0 -1 -4 -3 -12 -7 -28 -106 -1 0 -4 -1 -8 -5 0 0 -3 -3 -2 -2
-344 -262 -184 -115 -83 -26 0 0 -1 -12 -18 -12 -8 -10 -10 -9 -3 -15 -1 -1 0 0 0 -1 -8 -17 -11 -45 -40 -77 0 0 0 0 0 0 -1 0 0 0 0 0 0
-335 -245 -194 -116 -77 -47 -1 -4 -7 -13 -18 -17 -17 -11 -16 -9 -8 -7 -2 -2 -1 -2 -6 -21 -29 -22 -32 0 0 0 0 0 0 0 0 0 -2 0 0 0 0 0 0
-268 -248 -190 -115 -75 -60 -8 -6 -9 -13 -18 -23 -21 -17 -15 -9 -4 -3 -3 -1 -1 -3 -27 -40 -50 -50 -37 -1 0 0 0 0 0 0 0 0 0 0 0 0 0 0 0
-210 -186 -172 -128 -101 -87 -43 -18 -15 -11 -21 -25 -28 -19 -15 -7 -7 -19 -8 -1 -1 -34 -41 -38 -69 -70 -80 0 0 0 0 0 0 0 0 -1 0 0 0 0 0 0 0
-77 -172 -154 -150 -109 -90 -69 -42 -18 -10 -35 -29 -27 -36 -25 -7 -14 -26 -25 -6 -11 -66 -69 -36 -57 -137 -116 0 0 0 0 0 0 0 0 -1 0 0 0 0 0 0 0
-67 -76 -144 -136 -136 -95 -65 -53 -30 -22 -18 -22 -26 -21 -10 -14 -20 -21 -52 -23 -29 -57 -66 -49 -114 -120 0 0 0 0 0 0 0 0 0 0 0 0 0 0 0 0 0
-44 -67 -183 -157 -145 -124 -50 -73 -52 -33 -35 -28 -29 -14 -25 -1 -2 -2 -21 -26 -33 -29 -16 -3 -17 -105 0 0 -21 0 0 0 0 0 0 0 0 0 0 0 0 0 0
-65 -48 -60 -175 -166 -116 -52 -28 -72 -48 -40 -25 -6 -12 -3 -1 0 -8 0 -20 -36 -39 -16 0 0 -76 0 0 0 0 0 0 0 0 0 -1 0 0 0 0 0 0 0
-44 -56 -77 -177 -112 -103 -47 -85 -36 -59 -45 -20 -11 -1 -3 -9 -1 -1 -1 -2 -18 -27 0 -2 -51 -78 0 0 0 0 -3 0 0 0 0 -3 -1 0 0 0 0 0 0
-32 -19 -55 -157 -143 -85 -53 -98 -74 -90 -13 -12 -12 -2 -2 -2 0 -1 0 0 0 -4 0 0 -19 -43 0 -14 -11 -4 -7 0 0 0 0 0 -5 -1 0 0 0 0 0
-130 -42 -17 -61 -88 -93 -127 -81 -80 -66 -31 -17 -9 -2 -1 0 -1 0 0 -5 -3 0 -1 -5 -4 -34 -12 -9 -3 0 0 0 0 0 0 0 -1 -7 -2 0 0 0 0
0 -97 -22 -15 -43 -102 -112 -59 -68 -27 -43 -35 -12 -1 -2 0 0 0 0 0 0 -1 -3 -5 -2 -21 -19 -4 -1 0 -5 0 0 0 0 0 0 0 -1 -4 -1 0 0
0 -1 -18 0 -10 -16 -116 -33 -28 -38 -45 -29 -24 -9 0 -1 -3 -1 0 0 0 -1 -1 -2 -15 -19 -25 -2 0 -4 0 0 0 0 0 0 0 0 0 -3 -4 -2 -1
0 0 -42 0 0 0 -9 -69 -10 -55 -24 -29 -11 -6 0 -37 -2 -38 -2 0 -4 0 0 -3 -1 -20 -6 -10 -3 0 0 0 0 0 0 0 0 0 0 0 0 0 -3
0 -251 -76 0 0 0 0 -1 -21 -68 -24 -41 -17 -8 -2 -1 -6 -13 -21 -1 -7 -17 -20 -15 0 -16 0 -1 -2 0 0 0 0 0 0 0 0 0 0 0 0 0 0
0 0 -94 -7 0 0 0 0 0 -44 -82 -40 -43 -17 -14 0 -5 -19 -14 -30 -31 -35 -1 -7 -3 0 -2 -5 -2 -1 0 -3 0 0 0 0 0 0 0 0 0 0 0
0 0 -141 -20 -1 -1 0 0 0 0 0 0 -28 -15 -3 -1 0 -4 -30 -83 -16 -57 -17 -10 -24 -1 -1 -2 -6 0 0 -1 0 0 0 0 0 0 0 0 0 0 0
0 0 -142 -47 -17 -2 -5 0 0 0 -1 -66 -123 -54 -15 -1 -1 0 -9 -20 -5 -43 -28 -10 -16 0 -3 -1 -3 -1 -1 0 0 0 0 0 0 0 0 0 0 0 0
0 0 -88 -22 -9 0 0 -1 0 0 -4 -57 -22 -31 -43 -31 -10 -1 0 0 -8 -70 -35 -10 0 -9 0 -11 0 0 0 0 0 0 0 0 0 0 0 0 0 0 0
0 0 0 -74 -24 -1 0 -7 0 0 0 -15 -17 -13 -27 -10 -2 -4 -1 0 -3 -1 -53 -10 -6 -2 -11 -14 -5 -1 -3 0 0 0 0 0 0 0 0 0 0 0 0
Wind_Speed
24 25 30 32 33 31 28 25 26 25 26 29 28 26 25 23 18 12 11 11 12 16 17 19 16 21 21 22 24 23 19 17 15 16 16 17 18 17 16 14 13 nan 15
32 30 31 33 33 31 28 26 24 24 24 27 30 28 27 28 20 12 11 16 12 19 21 20 20 20 22 23 23 23 20 18 15 15 16 17 16 15 14 13 nan nan nan
31 28 28 31 34 31 29 25 22 22 25 25 29 28 31 29 24 16 15 19 16 18 20 16 18 19 23 24 24 23 22 21 20 21 nan nan nan nan nan nan nan nan nan
25 27 26 31 31 28 27 24 21 21 25 27 29 31 32 30 29 22 19 19 19 18 19 19 21 21 23 25 26 25 24 23 22 nan nan nan nan nan nan nan nan nan nan
26 24 23 30 29 26 25 23 22 21 23 27 29 33 32 30 31 21 20 19 18 16 19 22 23 23 23 24 24 24 24 nan nan nan nan nan nan nan nan nan nan nan nan
27 21 24 26 27 26 23 24 22 21 23 25 28 32 33 30 29 23 20 18 18 16 20 23 23 22 21 25 24 nan nan nan nan nan nan nan nan nan nan nan nan nan nan
24 25 26 26 25 25 23 24 23 20 22 24 26 28 31 32 24 18 20 20 18 19 21 23 24 23 24 nan nan nan nan nan nan nan nan nan nan nan nan nan nan nan nan
26 27 25 26 26 25 23 24 22 21 21 23 24 27 30 31 23 15 19 23 19 21 24 24 26 27 nan nan nan nan nan nan nan nan nan nan nan nan nan nan nan nan nan
31 30 29 23 23 24 22 21 21 23 22 23 23 26 30 30 14 14 17 20 22 22 24 nan 24 nan nan nan nan nan nan nan nan nan nan nan nan nan nan nan nan nan nan
32 28 29 26 21 20 16 21 21 23 24 24 25 25 27 28 19 16 21 23 26 25 nan nan nan nan nan nan nan nan nan nan nan nan nan nan nan nan nan nan nan nan nan
31 26 25 30 26 22 22 21 22 21 23 23 25 22 22 18 15 19 20 25 25 nan nan nan nan nan nan nan nan nan nan nan nan nan nan nan nan nan nan nan nan nan nan
27 27 23 30 31 26 24 22 20 18 18 17 18 nan nan nan 23 20 20 26 27 nan nan nan nan nan nan nan nan nan nan nan nan nan nan nan nan nan nan nan nan nan nan
31 31 23 28 31 28 24 22 20 18 18 18 nan nan nan nan nan nan nan 28 27 nan nan nan nan nan nan nan nan nan nan nan nan nan nan nan nan nan nan nan nan nan nan
37 28 27 27 31 28 28 23 21 19 18 18 nan nan nan nan nan nan nan nan nan nan nan nan nan nan nan nan nan nan nan nan nan nan nan nan nan nan nan nan nan nan nan
33 28 27 27 29 31 28 26 21 20 20 19 nan nan nan nan nan nan nan nan nan nan nan nan nan nan nan nan nan nan nan nan nan nan nan nan nan nan nan nan nan nan nan
50 30 29 17 26 32 29 28 23 21 21 20 nan nan nan nan nan nan nan nan nan nan nan nan nan nan nan nan nan nan nan nan nan nan nan nan nan nan nan nan nan nan nan
53 54 28 22 17 27 32 31 27 24 21 20 nan 16 nan nan nan nan nan nan nan nan nan nan nan nan nan nan nan nan nan nan nan nan nan nan nan nan nan nan nan nan nan
nan 56 48 28 22 20 26 31 31 27 23 22 nan nan nan nan nan nan nan nan nan nan nan nan nan nan nan nan nan nan nan nan nan nan nan nan nan nan nan nan nan nan nan
nan nan 59 33 23 23 26 32 31 28 25 23 24 21 nan nan nan nan nan nan nan nan nan nan nan nan nan nan nan nan nan nan nan nan nan nan nan nan nan nan nan nan nan
nan nan 61 55 36 29 36 36 35 32 26 25 23 24 22 nan nan nan nan 42 nan nan nan nan nan nan nan nan nan nan nan nan nan nan nan nan nan nan nan nan nan nan nan
nan nan 66 61 54 50 40 33 33 27 29 30 27 27 27 nan nan nan nan nan nan nan nan nan nan nan nan nan nan nan nan nan nan nan nan nan nan nan nan nan nan nan nan
nan nan 67 65 59 54 43 37 40 35 34 33 33 33 30 29 nan nan nan nan nan nan nan nan nan nan nan nan nan nan nan nan nan nan nan nan nan nan nan nan nan nan nan
nan nan 70 67 62 53 58 43 49 45 46 37 35 30 31 31 31 nan nan nan nan nan nan nan nan nan nan nan nan nan nan nan nan nan nan nan nan nan nan nan nan nan nan
nan nan nan 70 66 60 59 52 41 46 39 35 33 33 34 31 nan nan nan nan nan 31 44 35 nan nan nan nan nan nan nan nan nan nan nan nan nan nan nan nan nan nan nan
nan nan nan 70 71 66 61 62 54 44 43 44 42 35 33 30 30 nan nan nan nan nan 38 42 36 nan nan nan nan nan nan nan nan nan nan nan nan nan nan nan nan nan nan
nan nan nan 75 73 70 65 65 61 46 46 47 43 39 36 32 29 nan nan nan nan nan nan 42 nan nan nan nan nan nan nan nan nan nan nan nan nan nan nan nan nan nan nan
Wind_Direction
323 326 323 314 305 311 313 311 302 304 307 315 321 318 314 299 294 290 294 288 275 249 248 232 238 232 237 242 239 237 233 233 237 243 250 254 253 248 243 245 260 nan 253
314 323 319 313 315 316 319 316 305 303 302 314 319 317 314 302 287 262 271 267 269 257 241 248 244 234 242 245 238 233 229 222 231 246 253 252 248 245 246 254 nan nan nan
306 310 311 313 317 319 321 315 310 305 304 310 318 316 313 305 301 256 250 261 264 269 268 262 262 263 247 241 237 234 229 230 237 242 nan nan nan nan nan nan nan nan nan
296 297 303 310 314 320 319 317 319 316 309 312 315 313 317 311 299 240 242 255 260 262 274 277 268 262 250 243 239 236 228 227 226 nan nan nan nan nan nan nan nan nan nan
287 290 297 307 315 319 322 322 323 321 313 314 316 316 318 311 302 260 236 251 254 264 269 276 276 268 255 242 240 232 232 nan nan nan nan nan nan nan nan nan nan nan nan
281 280 293 302 312 317 318 325 327 319 315 318 320 318 319 311 305 273 239 243 260 261 267 274 275 267 248 236 236 nan nan nan nan nan nan nan nan nan nan nan nan nan nan
279 284 287 295 307 313 304 316 324 326 319 320 321 318 320 307 295 252 248 244 254 261 262 267 261 257 245 nan nan nan nan nan nan nan nan nan nan nan nan nan nan nan nan
287 287 287 297 302 304 303 302 308 319 324 320 323 317 318 306 282 289 267 249 253 256 258 258 254 250 nan nan nan nan nan nan nan nan nan nan nan nan nan nan nan nan nan
271 280 281 283 293 297 293 301 298 306 318 319 318 312 312 305 301 285 261 248 247 248 253 nan 248 nan nan nan nan nan nan nan nan nan nan nan nan nan nan nan nan nan nan
262 264 273 270 277 286 288 299 302 301 308 319 316 309 302 322 301 282 260 250 251 256 nan nan nan nan nan nan nan nan nan nan nan nan nan nan nan nan nan nan nan nan nan
257 255 266 274 268 271 274 295 303 305 306 316 322 298 286 295 262 271 250 255 250 nan nan nan nan nan nan nan nan nan nan nan nan nan nan nan nan nan nan nan nan nan nan
262 266 265 269 270 268 274 284 286 290 290 291 295 nan nan nan 207 207 219 246 243 nan nan nan nan nan nan nan nan nan nan nan nan nan nan nan nan nan nan nan nan nan nan
270 262 259 267 272 270 277 273 274 274 271 274 nan nan nan nan nan nan nan 223 228 nan nan nan nan nan nan nan nan nan nan nan nan nan nan nan nan nan nan nan nan nan nan
273 269 256 257 273 272 263 267 276 278 273 275 nan nan nan nan nan nan nan nan nan nan nan nan nan nan nan nan nan nan nan nan nan nan nan nan nan nan nan nan nan nan nan
245 236 247 261 267 265 260 263 267 273 274 275 nan nan nan nan nan nan nan nan nan nan nan nan nan nan nan nan nan nan nan nan nan nan nan nan nan nan nan nan nan nan nan
221 222 227 252 273 269 261 265 264 264 271 268 nan nan nan nan nan nan nan nan nan nan nan nan nan nan nan nan nan nan nan nan nan nan nan nan nan nan nan nan nan nan nan
225 211 231 226 250 267 262 264 262 263 266 265 nan 286 nan nan nan nan nan nan nan nan nan nan nan nan nan nan nan nan nan nan nan nan nan nan nan nan nan nan nan nan nan
nan 218 203 235 229 247 257 258 258 260 263 260 nan nan nan nan nan nan nan nan nan nan nan nan nan nan nan nan nan nan nan nan nan nan nan nan nan nan nan nan nan nan nan
nan nan 224 224 237 239 237 244 252 257 252 255 261 257 nan nan nan nan nan nan nan nan nan nan nan nan nan nan nan nan nan nan nan nan nan nan nan nan nan nan nan nan nan
nan nan 230 220 216 229 224 232 238 244 245 244 254 257 268 nan nan nan nan 216 nan nan nan nan nan nan nan nan nan nan nan nan nan nan nan nan nan nan nan nan nan nan nan
nan nan 229 226 210 214 230 224 237 243 243 244 246 262 262 nan nan nan nan nan nan nan nan nan nan nan nan nan nan nan nan nan nan nan nan nan nan nan nan nan nan nan nan
nan nan 224 228 218 215 220 224 215 225 232 238 241 252 257 265 nan nan nan nan nan nan nan nan nan nan nan nan nan nan nan nan nan nan nan nan nan nan nan nan nan nan nan
nan nan 220 221 221 216 214 229 227 220 223 231 241 251 261 270 284 nan nan nan nan nan nan nan nan nan nan nan nan nan nan nan nan nan nan nan nan nan nan nan nan nan nan
nan nan nan 219 219 217 217 222 238 231 228 222 233 249 255 267 nan nan nan nan nan 245 234 226 nan nan nan nan nan nan nan nan nan nan nan nan nan nan nan nan nan nan nan
nan nan nan 216 217 215 218 222 221 235 228 226 228 236 249 259 261 nan nan nan nan nan 237 241 229 nan nan nan nan nan nan nan nan nan nan nan nan nan nan nan nan nan nan
nan nan nan 213 217 214 217 223 218 227 237 230 228 232 236 246 257 nan nan nan nan nan nan 223 nan nan nan nan nan nan nan nan nan nan nan nan nan nan nan nan nan nan nan